Погода в Дурмине

Россия / Хабаровский край     48°05′16″N   135°50′52″E
темп.,
°C
ветер,
м/с
пор.,
м/с
влажн.,
%
обл.,
%
осадки,
мм/ч
давл.,
гПа
погр.,
м
2 марта, вт
вт201:00−23ююз23920 0.0 103056
04:00−23ю24920 0.0 102965
07:00−24ююз24920 0.0 103062
10:00−20юз36880 0.0 1029287
13:00−15зюз35710 0.0 1028698
16:00−14з35710 0.0 10271047
19:00−19юз338915 0.0 102955
22:00−21ююз24907 0.0 103160
3 марта, ср
ср301:00−22ююз23880 0.0 103067
04:00−22ю24870 0.0 103175
07:00−22ююв24860 0.0 103170
10:00−15ю387226 0.0 1030301
13:00−9ю486852 0.0 1026584
16:00−7ю4106972 0.0 1023942
19:00−8ю31181100 0.0 1021384
22:00−7ю31393100 0.2 1020677
4 марта, чт
чт401:00−5ю41289100 0.3 1018552
04:00−5ю51294100 1.2 1016588
07:00−5ю4129199 0.4 1015471
10:00−3ююз499296 0.5 1015462
13:000ююз3699100 0.3 1014549
16:00+1ююз4899100 0.5 1012704
19:00+1ююз51391100 0.2 1011697
22:000юз41095100 0.6 1009517
5 марта, пт
пт501:000зюз41098100 1.8 1008588
04:00−4з4893100 3.4 1011397
07:00−12юз4109172 0.1 1016388
10:00−13юз488769 0.1 1019440
13:00−11зюз587980 0.0 1020757
16:00−13зюз6107740 0.0 1022784
19:00−19юз411830 0.0 1025472
22:00−21юз399014 0.0 1028342
6 марта, сб
сб601:00−23юз389368 0.0 1029288
04:00−24юз5128837 0.0 1030444
07:00−24юз412890 0.0 1032440
10:00−21юз58858 0.0 1032674
13:00−17зюз587839 0.0 10311103
16:00−15зюз597870 0.1 10301122
19:00−17юз41185100 0.0 1031551
22:00−17юз4118750 0.0 1032325